Location: Ottawa
(45.4167°N, 75.7000°W)
Time: 15:34:19
(UTC-04:00)

Vanguard 2 Rocket - Visible Passes

Search period start: 21 October 2017 00:00
Search period end: 31 October 2017 00:00
Orbit: 555 x 3327 km, 32.9° (Epoch: 20 October)

Date Brightness Start Highest point End Pass type
(mag) Time Alt. Az. Time Alt. Az. Time Alt. Az.
21 Oct 10.9 19:30:11 10° WSW 19:37:24 16° SSW 19:46:18 10° S visible
22 Oct 10.7 18:29:28 10° WSW 18:37:06 20° SSW 18:47:18 10° SSE visible
24 Oct 11.0 18:47:07 10° SW 18:51:23 12° SSW 18:56:21 10° S visible
